$Date,$Time,DM0201B,DM0203B,DM0205B,DM0207B,DM0209B
03/11/99,00:00:01,467,171,-20,168,955
03/11/99,00:05:01,480,158,-20,163,955
03/11/99,00:10:01,509,168,-20,179,955
03/11/99,00:15:01,506,168,-20,171,955
03/11/99,00:20:01,462,168,-20,175,955
03/11/99,00:25:01,490,170,-20,172,955
03/11/99,00:30:01,462,170,-20,178,955
03/11/99,00:35:01,521,161,-20,170,955
03/11/99,00:40:01,497,172,-20,162,955
03/11/99,00:45:01,414,172,-20,161,955
03/11/99,00:50:01,433,164,-20,157,955
03/11/99,00:55:01,510,164,-20,153,955
03/11/99,01:00:01,508,163,-20,160,955
03/11/99,01:05:01,390,163,-18,160,953
03/11/99,01:10:01,376,175,-18,164,953
03/11/99,01:15:01,488,165,-18,167,953
03/11/99,01:20:01,529,165,-18,169,953
03/11/99,01:25:01,486,165,-18,186,953
03/11/99,01:30:01,446,177,-18,198,953
03/11/99,01:35:01,391,166,-18,214,953
03/11/99,01:40:01,399,166,-18,229,953
03/11/99,01:45:01,492,166,-18,235,953
03/11/99,01:50:01,540,166,-18,279,953
03/11/99,01:55:01,527,169,-18,285,953
03/11/99,02:00:01,444,168,-18,291,955
03/11/99,02:05:01,441,168,-18,291,953
03/11/99,02:10:01,488,168,-18,275,953
03/11/99,02:15:01,429,168,-18,284,953
03/11/99,02:20:01,426,168,-18,276,953
03/11/99,02:25:01,399,172,-18,260,953
03/11/99,02:30:01,533,169,-18,260,953
03/11/99,02:35:01,497,169,-18,247,953
03/11/99,02:40:01,488,169,-18,243,953
03/11/99,02:45:01,523,169,-16,250,953
03/11/99,02:50:01,403,169,-16,239,953
03/11/99,02:55:01,440,169,-16,218,953
03/11/99,03:00:01,427,159,-16,227,953
03/11/99,03:05:01,453,169,-16,205,953
03/11/99,03:10:01,470,169,-16,210,953
03/11/99,03:15:01,406,169,-16,216,953
03/11/99,03:20:01,458,169,-16,198,953
03/11/99,03:25:01,412,169,-16,215,953
03/11/99,03:30:01,445,169,-16,223,953
03/11/99,03:35:01,441,169,-16,206,953
03/11/99,03:40:01,403,167,-16,152,955
03/11/99,03:45:01,388,168,-16,135,955
03/11/99,03:50:01,331,168,-16,102,955
03/11/99,03:55:01,332,168,-16,109,955
03/11/99,04:00:01,289,163,-16,118,955
03/11/99,04:05:01,376,176,-16,129,955
03/11/99,04:10:01,403,178,-16,131,955
03/11/99,04:15:01,391,167,-16,151,955
03/11/99,04:20:01,372,166,-16,146,955
03/11/99,04:25:01,358,166,-16,131,955
03/11/99,04:30:01,343,178,-16,127,955
03/11/99,04:35:01,293,175,-16,112,955
03/11/99,04:40:01,289,175,-16,106,955
03/11/99,04:45:01,360,175,-16,106,955
03/11/99,04:50:01,344,179,-16,106,955
03/11/99,04:55:01,291,179,-16,102,955
03/11/99,05:00:01,262,179,-16,98,955
03/11/99,05:05:01,275,180,-16,98,955
03/11/99,05:10:01,278,180,-16,100,955
03/11/99,05:15:01,262,180,-16,100,955
03/11/99,05:20:01,230,180,-18,100,955
03/11/99,05:25:01,194,180,-18,104,955
03/11/99,05:30:01,154,173,-18,104,955
03/11/99,05:35:01,143,173,-16,102,955
03/11/99,05:40:01,161,173,-16,98,955
03/11/99,05:45:01,105,168,-16,92,955
03/11/99,05:50:01,108,174,-16,86,955
03/11/99,05:55:01,86,174,-16,80,955
03/11/99,06:00:01,108,164,-16,76,955
03/11/99,06:05:01,49,166,-16,72,955
03/11/99,06:10:01,82,171,-16,66,955
03/11/99,06:15:01,49,158,-16,60,955
03/11/99,06:20:01,15,146,-16,54,955
03/11/99,06:25:01,28,20,-16,52,955
03/11/99,06:30:01,13,29,-16,48,955
03/11/99,06:35:01,56,346,-16,46,955
03/11/99,06:40:01,24,346,-16,42,955
03/11/99,06:45:01,8,57,-16,40,955
03/11/99,06:50:01,5,323,-16,40,955
03/11/99,06:55:01,5,10,-16,46,955
03/11/99,07:00:01,31,42,-16,54,955
03/11/99,07:05:01,1,87,-16,53,955
03/11/99,07:10:01,32,68,-16,51,955
03/11/99,07:15:01,9,34,-14,43,955
03/11/99,07:20:01,20,55,-14,35,955
03/11/99,07:25:01,10,34,-14,33,955
03/11/99,07:30:01,14,45,-16,33,955
03/11/99,07:35:01,15,34,-16,29,955
03/11/99,07:40:01,9,13,-16,27,955
03/11/99,07:45:01,9,13,-16,21,955
03/11/99,07:50:01,9,25,-16,17,955
03/11/99,07:55:01,19,25,-16,13,955
03/11/99,08:00:01,32,35,-16,11,955
03/11/99,08:05:01,32,35,-18,9,955
03/11/99,08:10:01,32,12,-18,9,955
03/11/99,08:15:01,21,360,-18,7,955
03/11/99,08:20:01,32,350,-18,5,955
03/11/99,08:25:01,32,350,-18,5,955
03/11/99,08:30:01,32,350,-18,5,955
03/11/99,08:35:01,32,350,-18,5,955
03/11/99,08:40:01,21,350,-18,3,955
03/11/99,08:45:01,21,350,-18,3,955
03/11/99,08:50:01,10,350,-18,3,955
03/11/99,08:55:01,10,350,-18,3,955
03/11/99,09:00:01,10,350,-18,3,955
03/11/99,09:05:01,13,271,-18,3,955
03/11/99,09:10:01,2,261,-18,1,955
03/11/99,09:15:01,23,188,-18,1,955
03/11/99,09:20:01,23,188,-18,1,955
03/11/99,09:25:01,35,188,-18,1,955
03/11/99,09:30:01,66,188,-18,1,955
03/11/99,09:35:01,66,178,-18,1,955
03/11/99,09:40:01,89,178,-18,1,955
03/11/99,09:45:01,89,178,-18,1,955
03/11/99,09:50:01,89,178,-18,1,955
03/11/99,09:55:01,101,167,-18,1,955
03/11/99,10:00:01,97,167,-18,1,955
03/11/99,10:05:01,113,167,-18,1,955
03/11/99,10:10:01,113,160,-18,1,955
03/11/99,10:15:01,114,160,-18,1,955
03/11/99,10:20:01,136,160,-18,1,955
03/11/99,10:25:01,125,160,-18,1,955
03/11/99,10:30:01,134,170,-18,1,955
03/11/99,10:35:01,134,170,-18,1,955
03/11/99,10:40:01,113,170,-18,1,955
03/11/99,10:45:01,119,170,-18,1,955
03/11/99,10:50:01,154,180,-18,1,955
03/11/99,10:55:01,151,170,-18,1,955
03/11/99,11:00:01,152,170,-18,1,955
03/11/99,11:05:01,143,170,-18,1,955
03/11/99,11:10:01,144,170,-18,1,955
03/11/99,11:15:01,167,178,-18,1,955
03/11/99,11:20:01,134,178,-18,1,955
03/11/99,11:25:01,135,178,-20,1,955
03/11/99,11:30:01,102,168,-20,1,955
03/11/99,11:35:01,105,168,-20,1,955
03/11/99,11:40:01,82,168,-20,1,955
03/11/99,11:45:01,62,176,-20,1,955
03/11/99,11:50:01,70,166,-20,1,955
03/11/99,11:55:01,66,157,-20,1,955
03/11/99,12:00:01,55,147,-20,1,955
03/11/99,12:05:01,75,144,-20,1,955
03/11/99,12:10:01,76,144,-20,1,955
03/11/99,12:15:01,65,133,-20,1,955
03/11/99,12:20:01,46,138,-20,1,955
03/11/99,12:25:01,32,129,-20,1,955
03/11/99,12:30:01,36,145,-20,1,955
03/11/99,12:35:01,30,157,-20,1,955
03/11/99,12:40:01,8,103,-20,1,955
03/11/99,12:45:01,40,165,-20,1,955
03/11/99,12:50:01,38,160,-20,1,953
03/11/99,12:55:01,44,153,-20,1,953
03/11/99,13:00:01,44,154,-20,1,953
03/11/99,13:05:01,38,140,-20,1,953
03/11/99,13:10:01,28,130,-20,1,953
03/11/99,13:15:01,26,144,-20,1,953
03/11/99,13:20:01,29,130,-20,1,953
03/11/99,13:25:01,21,145,-20,1,953
03/11/99,13:30:01,9,144,-20,1,953
03/11/99,13:35:01,9,139,-20,1,953
03/11/99,13:40:01,35,185,-20,1,953
03/11/99,13:45:01,45,140,-20,1,953
03/11/99,13:50:01,45,130,-20,1,953
03/11/99,13:55:01,13,144,-20,1,953
03/11/99,14:00:01,3,58,-20,1,953
03/11/99,14:05:01,3,58,-20,1,953
03/11/99,14:10:01,3,127,-20,1,953
03/11/99,14:15:01,3,159,-22,1,953
03/11/99,14:20:01,16,159,-22,1,953
03/11/99,14:25:01,19,145,-22,1,953
03/11/99,14:30:01,21,169,-22,1,953
03/11/99,14:35:01,42,169,-22,1,953
03/11/99,14:40:01,42,166,-22,1,953
03/11/99,14:45:01,51,166,-22,1,953
03/11/99,14:50:01,76,161,-22,1,953
03/11/99,14:55:01,73,159,-22,1,953
03/11/99,15:00:01,60,159,-22,1,953
03/11/99,15:05:01,48,159,-22,1,953
03/11/99,15:10:01,36,159,-22,1,953
03/11/99,15:15:01,5,132,-22,1,953
03/11/99,15:20:01,17,143,-22,1,953
03/11/99,15:25:01,29,162,-22,1,953
03/11/99,15:30:01,29,150,-22,1,953
03/11/99,15:35:01,46,150,-22,1,953
03/11/99,15:40:01,51,161,-22,1,953
03/11/99,15:45:01,47,154,-22,1,953
03/11/99,15:50:01,29,160,-22,1,953
03/11/99,15:55:01,39,165,-22,1,953
03/11/99,16:00:01,36,185,-22,1,953
03/11/99,16:05:01,26,185,-22,1,953
03/11/99,16:10:01,59,188,-22,1,953
03/11/99,16:15:01,47,188,-22,1,953
03/11/99,16:20:01,29,188,-22,1,953
03/11/99,16:25:01,46,176,-22,1,953
03/11/99,16:30:01,36,188,-22,1,953
03/11/99,16:35:01,31,180,-22,1,953
03/11/99,16:40:01,39,184,-22,1,953
03/11/99,16:45:01,67,184,-22,1,953
03/11/99,16:50:01,75,183,-22,1,953
03/11/99,16:55:01,73,172,-22,1,953
03/11/99,17:00:01,100,179,-22,1,953
03/11/99,17:05:01,88,186,-22,1,953
03/11/99,17:10:01,103,175,-22,1,953
03/11/99,17:15:01,104,175,-22,1,953
03/11/99,17:20:01,90,178,-22,1,953
03/11/99,17:25:01,117,178,-22,1,953
03/11/99,17:30:01,128,178,-20,1,953
03/11/99,17:35:01,128,178,-20,1,953
03/11/99,17:40:01,128,189,-20,3,953
03/11/99,17:45:01,128,189,-20,3,953
03/11/99,17:50:01,128,189,-20,3,953
03/11/99,17:55:01,128,189,-20,5,953
03/11/99,18:00:01,128,189,-20,5,953
03/11/99,18:05:01,128,189,-20,5,953
03/11/99,18:10:01,118,189,-20,7,953
03/11/99,18:15:01,118,189,-20,7,953
03/11/99,18:20:01,118,189,-20,9,953
03/11/99,18:25:01,118,189,-20,11,953
03/11/99,18:30:01,108,189,-20,11,953
03/11/99,18:35:01,108,199,-20,13,953
03/11/99,18:40:01,118,199,-20,15,953
03/11/99,18:45:01,118,199,-20,17,953
03/11/99,18:50:01,118,199,-20,17,953
03/11/99,18:55:01,141,199,-20,19,953
03/11/99,19:00:01,122,197,-20,21,953
03/11/99,19:05:01,119,197,-20,23,953
03/11/99,19:10:01,130,187,-20,25,953
03/11/99,19:15:01,130,187,-20,27,953
03/11/99,19:20:01,119,187,-20,29,953
03/11/99,19:25:01,117,187,-20,31,953
03/11/99,19:30:01,117,187,-20,37,953
03/11/99,19:35:01,106,187,-20,41,953
03/11/99,19:40:01,96,187,-20,43,953
03/11/99,19:45:01,104,199,-20,49,953
03/11/99,19:50:01,117,186,-20,53,953
03/11/99,19:55:01,117,186,-20,57,953
03/11/99,20:00:01,94,211,-20,63,953
03/11/99,20:05:01,93,200,-20,71,953
03/11/99,20:10:01,72,189,-20,75,953
03/11/99,20:15:01,90,203,-20,75,953
03/11/99,20:20:01,101,218,-20,65,953
03/11/99,20:25:01,105,218,-20,65,953
03/11/99,20:30:01,105,230,-20,65,953
03/11/99,20:35:01,81,230,-20,71,953
03/11/99,20:40:01,68,242,-18,77,953
03/11/99,20:45:01,93,241,-18,85,953
03/11/99,20:50:01,68,231,-18,87,953
03/11/99,20:55:01,73,231,-18,89,953
03/11/99,21:00:01,75,221,-18,99,953
03/11/99,21:05:01,75,221,-18,109,953
03/11/99,21:10:01,75,221,-18,109,953
03/11/99,21:15:01,75,211,-18,109,953
03/11/99,21:20:01,65,211,-18,109,953
03/11/99,21:25:01,76,211,-18,115,953
03/11/99,21:30:01,77,211,-18,114,953
03/11/99,21:35:01,77,211,-18,120,953
03/11/99,21:40:01,77,211,-18,120,953
03/11/99,21:45:01,77,211,-18,128,953
03/11/99,21:50:01,65,221,-18,129,953
03/11/99,21:55:01,44,221,-18,149,953
03/11/99,22:00:01,44,232,-18,144,953
03/11/99,22:05:01,44,232,-18,140,953
03/11/99,22:10:01,34,232,-18,141,953
03/11/99,22:15:01,45,243,-18,149,953
03/11/99,22:20:01,34,255,-16,139,953
03/11/99,22:25:01,27,266,-16,131,953
03/11/99,22:30:01,37,266,-16,139,953
03/11/99,22:35:01,36,277,-16,165,953
03/11/99,22:40:01,36,277,-16,149,953
03/11/99,22:45:01,36,267,-16,142,953
03/11/99,22:50:01,32,267,-16,150,953
03/11/99,22:55:01,13,283,-16,152,953
03/11/99,23:00:01,26,283,-16,145,953
03/11/99,23:05:01,38,283,-16,173,953
03/11/99,23:10:01,38,283,-16,221,953
03/11/99,23:15:01,28,283,-16,219,953
03/11/99,23:20:01,31,287,-16,222,953
03/11/99,23:25:01,38,282,-16,185,953
03/11/99,23:30:01,35,307,-16,173,953
03/11/99,23:35:01,25,306,-16,162,953
03/11/99,23:40:01,35,294,-16,162,951
03/11/99,23:45:01,45,305,-16,164,951
03/11/99,23:50:01,24,317,-16,153,951
03/11/99,23:55:01,20,327,-16,141,951
03/12/99,00:00:01,20,327,-16,135,951
